FW6992 Weather Reports


Display with metric or nautical units.
time (UTC)temp
F
wind
direction
speed
MPH
gust
MPH
rain 1hr
in
rain 24hr
in
rain mn
in
humidity
%
barometer
mb
20260903163056 0 0.0 0.0 0.00 0.00 0.00 1020.8
20260903162552 0 0.0 0.0 0.00 0.00 0.00 1020.8
20260903162048 86 196 2.0 2.0 0.00 0.00 0.00 63 1020.7
20260903161543 86 196 2.0 2.0 0.00 0.00 0.00 63 1021.0
20260903161039 86 196 2.0 2.0 0.00 0.00 0.00 63 1021.0
20260903160539 86 196 2.0 2.0 0.00 0.00 0.00 63 1021.0
20260903160033 86 196 2.0 2.0 0.00 0.00 0.00 63 1021.0
20260903155532 86 196 2.0 2.0 0.00 0.00 0.00 63 1021.1
20260903155028 86 196 2.0 2.0 0.00 0.00 0.00 63 1021.1
20260903154524 86 196 2.0 2.0 0.00 0.00 0.00 63 1021.0
20260903154020 86 196 2.0 2.0 0.00 0.00 0.00 63 1020.8
20260903153515 86 196 2.0 2.0 0.00 0.00 0.00 63 1021.3
20260903153011 86 196 2.0 2.0 0.00 0.00 0.00 63 1021.5
20260903152507 86 196 2.0 2.0 0.00 0.00 0.00 63 1021.2
20260903152003 86 240 2.0 2.0 0.00 0.00 0.00 66 1021.4
20260903151502 85 280 0.0 1.0 0.00 0.00 0.00 65 1021.2
20260903150957 84 239 2.0 3.0 0.00 0.00 0.00 68 1021.2
20260903150456 84 353 1.0 2.0 0.00 0.00 0.00 68 1021.2
20260903145951 83 28 1.0 4.0 0.00 0.00 0.00 69 1021.3
20260903145446 83 252 2.0 2.0 0.00 0.00 0.00 72 1021.1
20260903144942 82 162 0.0 0.0 0.00 0.00 0.00 74 1021.2
20260903144441 81 274 2.0 2.0 0.00 0.00 0.00 75 1020.8
20260903143937 81 245 2.0 2.0 0.00 0.00 0.00 74 1021.2
20260903143433 81 180 1.0 4.0 0.00 0.00 0.00 73 1020.9
20260903142928 81 249 2.0 2.0 0.00 0.00 0.00 74 1020.9
20260903142424 82 129 1.0 3.0 0.00 0.00 0.00 72 1021.0
20260903141920 82 63 2.0 2.0 0.00 0.00 0.00 74 1021.0
20260903141415 82 278 0.0 0.0 0.00 0.00 0.00 74 1020.8
20260903140911 81 124 0.0 0.0 0.00 0.00 0.00 74 1021.0
20260903140407 81 304 0.0 0.0 0.00 0.00 0.00 75 1021.2
20260903135902 81 322 0.0 1.0 0.00 0.00 0.00 76 1021.0
20260903135357 81 298 1.0 1.0 0.00 0.00 0.00 75 1020.6
20260903134856 82 171 2.0 2.0 0.00 0.00 0.00 73 1020.8
20260903134351 82 320 0.0 0.0 0.00 0.00 0.00 72 1020.7
20260903133849 81 151 0.0 0.0 0.00 0.00 0.00 73 1020.7
20260903133345 81 266 0.0 1.0 0.00 0.00 0.00 74 1020.4
20260903132839 81 263 0.0 0.0 0.00 0.00 0.00 75 1020.6
20260903132335 80 84 0.0 1.0 0.00 0.00 0.00 74 1020.5
20260903131830 80 238 0.0 0.0 0.00 0.00 0.00 76 1020.6
20260903131330 80 336 0.0 0.0 0.00 0.00 0.00 77 1020.5
20260903130829 80 336 0.0 0.0 0.00 0.00 0.00 77 1020.6
20260903130324 80 336 0.0 0.0 0.00 0.00 0.00 77 1020.5
20260903125822 80 273 0.0 1.0 0.00 0.00 0.00 77 1020.9
20260903125318 80 311 0.0 0.0 0.00 0.00 0.00 77 1021.0
20260903124817 79 97 0.0 1.0 0.00 0.00 0.00 80 1020.8
20260903124313 77 261 0.0 1.0 0.00 0.00 0.00 83 1021.1
20260903123811 76 290 0.0 1.0 0.00 0.00 0.00 86 1021.1
20260903123311 75 212 0.0 1.0 0.00 0.00 0.00 87 1020.9
20260903122809 75 36 0.0 0.0 0.00 0.00 0.00 88 1021.0
20260903122306 75 326 0.0 0.0 0.00 0.00 0.00 87 1020.8
20260903121802 74 294 0.0 0.0 0.00 0.00 0.00 87 1020.8
20260903121253 74 330 0.0 0.0 0.00 0.00 0.00 88 1021.0
20260903120749 74 251 0.0 1.0 0.00 0.00 0.00 89 1020.9
20260903120247 74 258 0.0 0.0 0.00 0.00 0.00 89 1021.0
20260903115747 73 281 0.0 0.0 0.00 0.00 0.00 91 1020.9
20260903115242 73 281 0.0 0.0 0.00 0.00 0.00 91 1020.9
20260903114742 73 238 0.0 0.0 0.00 0.00 0.00 91 1020.8
20260903114238 72 251 0.0 0.0 0.00 0.00 0.00 91 1020.7
20260903113732 72 330 0.0 0.0 0.00 0.00 0.00 91 1020.8
20260903113229 72 251 0.0 0.0 0.00 0.00 0.00 91 1020.7
20260903112724 72 185 0.0 0.0 0.00 0.00 0.00 92 1020.7
20260903112220 72 239 0.0 0.0 0.00 0.00 0.00 92 1020.4
20260903111719 72 290 0.0 0.0 0.00 0.00 0.00 92 1020.3
20260903111214 72 138 0.0 0.0 0.00 0.00 0.00 92 1020.4
20260903110710 71 318 0.0 0.0 0.00 0.00 0.00 92 1020.3
20260903110206 71 318 0.0 0.0 0.00 0.00 0.00 92 1020.0
20260903105705 71 201 0.0 0.0 0.00 0.00 0.00 92 1020.0
20260903105200 71 238 0.0 0.0 0.00 0.00 0.00 92 1020.5
20260903104700 71 110 0.0 0.0 0.00 0.00 0.00 92 1020.1
20260903104155 71 110 0.0 0.0 0.00 0.00 0.00 92 1020.1
20260903103651 71 223 0.0 0.0 0.00 0.00 0.00 91 1020.1
20260903103147 71 323 0.0 1.0 0.00 0.00 0.00 91 1020.1
20260903102642 71 330 0.0 0.0 0.00 0.00 0.00 91 1020.2
20260903102142 71 134 0.0 0.0 0.00 0.00 0.00 91 1020.0
20260903101641 71 290 0.0 0.0 0.00 0.00 0.00 91 1019.9
20260903101137 71 138 0.0 0.0 0.00 0.00 0.00 91 1020.2
20260903100631 71 251 0.0 1.0 0.00 0.00 0.00 91 1019.9
20260903100131 71 250 0.0 0.0 0.00 0.00 0.00 91 1020.0
20260903095628 71 289 0.0 1.0 0.00 0.00 0.00 91 1020.0
20260903095128 71 303 0.0 1.0 0.00 0.00 0.00 91 1020.0
20260903094623 72 320 0.0 1.0 0.00 0.00 0.00 91 1020.3
20260903094119 72 336 0.0 0.0 0.00 0.00 0.00 91 1019.9
20260903093614 72 223 0.0 1.0 0.00 0.00 0.00 91 1020.1
20260903093109 72 4 0.0 0.0 0.00 0.00 0.00 90 1020.0
20260903092608 72 163 0.0 1.0 0.00 0.00 0.00 90 1020.0
20260903092103 72 168 0.0 0.0 0.00 0.00 0.00 90 1020.1
20260903091602 72 251 0.0 1.0 0.00 0.00 0.00 90 1020.0
20260903091056 72 163 0.0 0.0 0.00 0.00 0.00 90 1020.0
20260903090552 72 284 0.0 1.0 0.00 0.00 0.00 89 1020.2
20260903090051 72 245 0.0 1.0 0.00 0.00 0.00 89 1020.1
20260903085549 72 58 0.0 0.0 0.00 0.00 0.00 89 1019.9
20260903085045 73 110 0.0 1.0 0.00 0.00 0.00 89 1020.0
20260903084543 73 245 0.0 0.0 0.00 0.00 0.00 89 1020.0
20260903084038 72 244 0.0 1.0 0.00 0.00 0.00 89 1019.8
20260903083534 72 178 0.0 0.0 0.00 0.00 0.00 89 1019.6
20260903083034 72 263 0.0 0.0 0.00 0.00 0.00 89 1019.8
20260903082528 72 138 0.0 1.0 0.00 0.00 0.00 89 1019.8
20260903082023 73 194 0.0 0.0 0.00 0.00 0.00 89 1019.7
20260903081519 73 318 0.0 1.0 0.00 0.00 0.00 89 1019.8
20260903081015 73 321 0.0 0.0 0.00 0.00 0.00 89 1019.8
20260903080511 73 233 0.0 0.0 0.00 0.00 0.00 88 1019.7
20260903080008 73 240 0.0 2.0 0.00 0.00 0.00 89 1019.8
20260903075502 73 251 0.0 0.0 0.00 0.00 0.00 89 1019.6
20260903074957 73 251 0.0 0.0 0.00 0.00 0.00 89 1019.6
20260903074456 73 336 0.0 0.0 0.00 0.00 0.00 89 1019.8
20260903073951 73 336 0.0 0.0 0.00 0.00 0.00 89 1019.8
20260903073446 73 238 0.0 0.0 0.00 0.00 0.00 89 1019.5
20260903072942 73 238 0.0 0.0 0.00 0.00 0.00 89 1019.5
20260903072438 73 238 0.0 0.0 0.00 0.00 0.00 88 1019.7
20260903071935 73 238 0.0 0.0 0.00 0.00 0.00 88 1019.5
20260903071430 73 150 0.0 0.0 0.00 0.00 0.00 88 1019.8
20260903070926 73 150 0.0 0.0 0.00 0.00 0.00 87 1019.9
20260903070420 73 330 0.0 0.0 0.00 0.00 0.00 87 1019.9
20260903065915 73 330 0.0 0.0 0.00 0.00 0.00 87 1019.8
20260903065414 73 330 0.0 0.0 0.00 0.00 0.00 87 1019.9
20260903064914 73 330 0.0 0.0 0.00 0.00 0.00 87 1020.1
20260903064409 73 330 0.0 0.0 0.00 0.00 0.00 87 1020.0
20260903063906 73 330 0.0 0.0 0.00 0.00 0.00 87 1020.0
20260903063401 73 330 0.0 0.0 0.00 0.00 0.00 87 1020.2
20260903062856 73 330 0.0 0.0 0.00 0.00 0.00 87 1020.1
20260903062355 73 330 0.0 0.0 0.00 0.00 0.00 87 1019.9
20260903061852 73 343 0.0 0.0 0.00 0.00 0.00 87 1019.9
20260903061351 73 330 0.0 0.0 0.00 0.00 0.00 87 1020.1
20260903060847 73 330 0.0 0.0 0.00 0.00 0.00 87 1020.0
20260903060346 73 330 0.0 0.0 0.00 0.00 0.00 87 1019.9
20260903055844 73 330 0.0 0.0 0.00 0.00 0.00 87 1020.4
20260903055343 73 178 0.0 0.0 0.00 0.00 0.00 87 1020.1
20260903054838 73 216 0.0 0.0 0.00 0.00 0.00 86 1020.1
20260903054338 73 216 0.0 0.0 0.00 0.00 0.00 86 1020.2
20260903053835 73 216 0.0 0.0 0.00 0.00 0.00 87 1020.3
20260903053329 73 216 0.0 0.0 0.00 0.00 0.00 87 1020.3
20260903052825 73 216 0.0 0.0 0.00 0.00 0.00 87 1020.4
20260903052320 73 216 0.0 0.0 0.00 0.00 0.00 87 1020.5
20260903051816 73 216 0.0 0.0 0.00 0.00 0.00 87 1020.5
20260903051311 73 216 0.0 0.0 0.00 0.00 0.00 87 1020.7
20260903050806 73 216 0.0 0.0 0.00 0.00 0.00 87 1020.5
20260903050305 73 216 0.0 0.0 0.00 0.00 0.00 87 1020.5
20260903045800 73 216 0.0 0.0 0.00 0.00 0.00 87 1020.6
20260903045256 73 318 0.0 0.0 0.00 0.00 0.00 87 1020.8
20260903044752 73 238 0.0 0.0 0.00 0.00 0.00 87 1020.5
20260903044247 74 238 0.0 0.0 0.00 0.00 0.00 86 1020.6
20260903043744 74 263 0.0 1.0 0.00 0.00 0.00 86 1020.9
20260903043244 74 263 0.0 0.0 0.00 0.00 0.00 85 1020.7
20260903042743 74 263 0.0 0.0 0.00 0.00 0.00 85 1020.6
20260903042238 74 263 0.0 0.0 0.00 0.00 0.00 84 1020.8
20260903041734 74 87 0.0 0.0 0.00 0.00 0.00 83 1020.6
20260903041231 74 87 0.0 0.0 0.00 0.00 0.00 83 1020.2
20260903040730 74 314 0.0 0.0 0.00 0.00 0.00 83 1020.4
20260903040225 74 314 0.0 0.0 0.00 0.00 0.00 83 1020.3
20260903035721 74 343 0.0 0.0 0.00 0.00 0.00 84 1020.4
20260903035217 74 343 0.0 0.0 0.00 0.00 0.00 84 1020.4
20260903034717 75 175 0.0 0.0 0.00 0.00 0.00 83 1020.6
20260903034212 75 175 0.0 0.0 0.00 0.00 0.00 83 1020.5
20260903033708 75 175 0.0 0.0 0.00 0.00 0.00 82 1020.6
20260903033208 75 233 0.0 0.0 0.00 0.00 0.00 82 1020.4
20260903032702 75 354 0.0 0.0 0.00 0.00 0.00 82 1020.6
20260903032158 75 354 0.0 0.0 0.00 0.00 0.00 82 1020.6
20260903031654 75 354 0.0 0.0 0.00 0.00 0.00 83 1020.6
20260903031153 75 207 0.0 0.0 0.00 0.00 0.00 83 1020.4
20260903030649 75 207 0.0 0.0 0.00 0.00 0.00 83 1020.8
20260903030144 75 207 0.0 0.0 0.00 0.00 0.00 83 1020.7
20260903025640 75 207 0.0 0.0 0.00 0.00 0.00 83 1020.8
20260903025135 75 207 0.0 0.0 0.00 0.00 0.00 83 1020.7
20260903024630 75 207 0.0 0.0 0.00 0.00 0.00 84 1021.0
20260903024129 75 207 0.0 0.0 0.00 0.00 0.00 83 1020.8
20260903023625 75 207 0.0 0.0 0.00 0.00 0.00 83 1020.9
20260903023125 75 214 0.0 0.0 0.00 0.00 0.00 83 1021.3
20260903022621 75 263 0.0 0.0 0.00 0.00 0.00 83 1021.1
20260903022120 75 263 0.0 0.0 0.00 0.00 0.00 83 1021.3
20260903021619 75 263 0.0 0.0 0.00 0.00 0.00 84 1021.1
20260903021114 75 238 0.0 0.0 0.00 0.00 0.00 84 1021.3
20260903020610 75 238 0.0 0.0 0.00 0.00 0.00 84 1021.2
20260903020110 0 0.0 0.0 0.00 0.00 0.00 1021.5
20260903015605 0 0.0 0.0 0.00 0.00 0.00 1021.6
20260903015101 76 134 0.0 0.0 0.00 0.00 0.00 78 1021.6
20260903014600 76 134 0.0 0.0 0.00 0.00 0.00 78 1021.7
20260903014100 76 134 0.0 0.0 0.00 0.00 0.00 78 1021.5
20260903013555 76 134 0.0 0.0 0.00 0.00 0.00 78 1021.3
20260903013050 76 134 0.0 0.0 0.00 0.00 0.00 78 1021.4
20260903012549 76 134 0.0 0.0 0.00 0.00 0.00 78 1021.4
20260903012048 76 134 0.0 0.0 0.00 0.00 0.00 78 1021.4
20260903011543 76 134 0.0 0.0 0.00 0.00 0.00 78 1021.2
20260903011037 76 134 0.0 0.0 0.00 0.00 0.00 78 1021.4
20260903010533 76 134 0.0 0.0 0.00 0.00 0.00 78 1021.5
20260903010031 76 134 0.0 0.0 0.00 0.00 0.00 78 1021.3
20260903005531 76 134 0.0 0.0 0.00 0.00 0.00 78 1021.4
20260903005027 76 71 0.0 1.0 0.00 0.00 0.00 78 1021.1
20260903004526 77 233 0.0 1.0 0.00 0.00 0.00 78 1021.2
20260903004022 77 69 0.0 0.0 0.00 0.00 0.00 78 1021.3
20260903003517 77 49 0.0 0.0 0.00 0.00 0.00 77 1021.0
20260903003013 77 330 0.0 1.0 0.00 0.00 0.00 78 1020.8
20260903002512 77 292 0.0 0.0 0.00 0.00 0.00 77 1020.9
20260903002008 77 121 1.0 1.0 0.00 0.00 0.00 76 1020.7
20260903001508 77 256 0.0 1.0 0.00 0.00 0.00 75 1020.6
20260903001007 78 150 0.0 0.0 0.00 0.00 0.00 75 1020.8
20260903000503 78 150 0.0 0.0 0.00 0.00 0.00 75 1021.0
20260903000001 78 150 0.0 0.0 0.00 0.00 0.00 75 1020.5
20260902235455 78 325 0.0 0.0 0.00 0.00 0.00 75 1020.8
20260902234950 78 162 0.0 0.0 0.00 0.00 0.00 75 1020.8
20260902234445 78 245 0.0 0.0 0.00 0.00 0.00 73 1021.1
20260902233944 79 276 0.0 1.0 0.00 0.00 0.00 72 1021.2
20260902233438 79 249 2.0 2.0 0.00 0.00 0.00 72 1021.4
20260902232938 79 150 0.0 1.0 0.00 0.00 0.00 72 1021.2
20260902232432 79 238 0.0 1.0 0.00 0.00 0.00 71 1021.5
20260902231932 80 336 1.0 2.0 0.00 0.00 0.00 70 1021.3
20260902231427 80 159 1.0 2.0 0.00 0.00 0.00 69 1021.4
20260902230922 80 135 0.0 2.0 0.00 0.00 0.00 68 1021.3
20260902230422 81 131 0.0 2.0 0.00 0.00 0.00 68 1021.2
20260902225922 81 290 0.0 1.0 0.00 0.00 0.00 68 1021.3
20260902225417 81 156 0.0 1.0 0.00 0.00 0.00 67 1021.2
20260902224915 81 277 0.0 1.0 0.00 0.00 0.00 68 1021.2
20260902224409 82 222 2.0 2.0 0.00 0.00 0.00 67 1021.1
20260902223907 82 153 0.0 1.0 0.00 0.00 0.00 67 1021.5
20260902223406 82 251 0.0 0.0 0.00 0.00 0.00 67 1021.6
20260902222901 82 330 0.0 0.0 0.00 0.00 0.00 66 1021.4
20260902222359 82 277 0.0 2.0 0.00 0.00 0.00 65 1021.3
20260902221859 83 246 1.0 2.0 0.00 0.00 0.00 65 1021.6
20260902221359 82 77 0.0 2.0 0.00 0.00 0.00 64 1021.1
20260902220854 82 330 0.0 2.0 0.00 0.00 0.00 65 1021.0
20260902220354 82 53 0.0 2.0 0.00 0.00 0.00 65 1021.3
20260902215850 82 96 0.0 0.0 0.00 0.00 0.00 64 1021.8
20260902215350 82 202 2.0 2.0 0.00 0.00 0.00 63 1021.6
20260902214846 82 171 0.0 1.0 0.00 0.00 0.00 62 1021.2
20260902214344 81 147 0.0 2.0 0.00 0.00 0.00 64 1021.2
20260902213839 80 30 0.0 1.0 0.00 0.00 0.00 65 1021.5
20260902213336 80 260 0.0 2.0 0.00 0.00 0.00 65 1021.5
20260902212834 81 267 0.0 1.0 0.00 0.00 0.00 64 1021.4
20260902212331 81 160 2.0 3.0 0.00 0.00 0.00 62 1020.8
20260902211827 82 239 1.0 4.0 0.00 0.00 0.00 58 1020.8
20260902211322 83 102 1.0 3.0 0.00 0.00 0.00 56 1020.7
20260902210818 84 34 2.0 3.0 0.00 0.00 0.00 56 1020.5
20260902210317 85 112 0.0 5.0 0.00 0.00 0.00 54 1020.5
20260902205815 86 64 2.0 10.0 0.00 0.00 0.00 52 1020.8
20260902205316 90 79 3.0 3.0 0.00 0.00 0.00 50 1021.0
20260902204811 91 318 0.0 1.0 0.00 0.00 0.00 53 1020.3
20260902204306 93 322 0.0 1.0 0.00 0.00 0.00 51 1020.3
20260902203801 93 184 0.0 0.0 0.00 0.00 0.00 51 1020.3
20260902203256 92 346 0.0 2.0 0.00 0.00 0.00 50 1020.4
20260902202751 93 290 0.0 1.0 0.00 0.00 0.00 48 1020.1
20260902202248 93 263 0.0 0.0 0.00 0.00 0.00 49 1020.1
20260902201744 93 110 0.0 0.0 0.00 0.00 0.00 47 1019.7
20260902201243 94 301 1.0 1.0 0.00 0.00 0.00 47 1020.0
20260902200738 96 345 0.0 0.0 0.00 0.00 0.00 44 1019.9
20260902200234 97 288 1.0 1.0 0.00 0.00 0.00 43 1020.1
20260902195729 98 262 2.0 2.0 0.00 0.00 0.00 42 1019.9
20260902195228 98 227 0.0 1.0 0.00 0.00 0.00 43 1019.8
20260902194728 98 245 0.0 0.0 0.00 0.00 0.00 43 1020.0
20260902194223 98 74 0.0 0.0 0.00 0.00 0.00 39 1019.7
20260902193719 98 276 0.0 1.0 0.00 0.00 0.00 41 1019.6
20260902193214 98 184 0.0 1.0 0.00 0.00 0.00 42 1019.6
20260902192712 99 226 0.0 1.0 0.00 0.00 0.00 42 1019.7
20260902192206 99 343 0.0 0.0 0.00 0.00 0.00 40 1019.7
20260902191701 99 251 0.0 1.0 0.00 0.00 0.00 42 1019.7
20260902191201 98 249 0.0 1.0 0.00 0.00 0.00 42 1019.9
20260902190656 98 347 0.0 0.0 0.00 0.00 0.00 40 1020.0
20260902190151 98 261 0.0 1.0 0.00 0.00 0.00 41 1020.3
20260902185647 97 227 1.0 2.0 0.00 0.00 0.00 43 1020.1
20260902185143 97 227 1.0 2.0 0.00 0.00 0.00 43 1020.2
20260902184643 97 227 1.0 2.0 0.00 0.00 0.00 43 1020.3
20260902184139 97 227 1.0 2.0 0.00 0.00 0.00 43 1020.4
20260902183635 97 227 1.0 2.0 0.00 0.00 0.00 43 1020.5
20260902183131 97 177 2.0 2.0 0.00 0.00 0.00 42 1020.5
20260902182627 99 126 2.0 3.0 0.00 0.00 0.00 41 1020.8
20260902182123 98 290 0.0 2.0 0.00 0.00 0.00 41 1020.5
20260902181619 97 239 2.0 2.0 0.00 0.00 0.00 43 1020.8
20260902181119 96 304 0.0 1.0 0.00 0.00 0.00 44 1020.8
20260902180618 96 304 0.0 1.0 0.00 0.00 0.00 44 1020.9
20260902180115 96 232 1.0 2.0 0.00 0.00 0.00 46 1021.0
20260902175614 96 267 0.0 0.0 0.00 0.00 0.00 45 1020.9
20260902175110 96 128 2.0 2.0 0.00 0.00 0.00 43 1021.0
20260902174606 95 284 2.0 2.0 0.00 0.00 0.00 47 1021.0
20260902174102 95 185 0.0 3.0 0.00 0.00 0.00 44 1020.9
20260902173601 96 96 0.0 1.0 0.00 0.00 0.00 44 1020.9
20260902173057 96 138 0.0 1.0 0.00 0.00 0.00 48 1020.9
20260902172556 95 251 2.0 2.0 0.00 0.00 0.00 50 1021.0
20260902172051 94 239 0.0 3.0 0.00 0.00 0.00 51 1021.1
20260902171547 94 323 0.0 0.0 0.00 0.00 0.00 46 1021.0
20260902171043 94 135 0.0 2.0 0.00 0.00 0.00 46 1021.1
20260902170538 94 312 2.0 2.0 0.00 0.00 0.00 46 1021.2
20260902170034 93 276 0.0 2.0 0.00 0.00 0.00 51 1021.2
20260902165533 93 128 0.0 1.0 0.00 0.00 0.00 46 1021.5
20260902165033 93 128 0.0 1.0 0.00 0.00 0.00 46 1021.5
20260902164529 93 128 0.0 1.0 0.00 0.00 0.00 46 1021.2
20260902164027 93 128 0.0 1.0 0.00 0.00 0.00 46 1021.4
20260902163524 93 26 0.0 0.0 0.00 0.00 0.00 48 1021.8